Dewpoint
15 15 14 14 12 12 8 10 8 9 11 11 11 12 13 12 12 9 10 11 12 12 13 13 13 13 14 14 15 15 14 14 13 13 13 13 12 12 12 12 12 11 11
15 15 14 13 13 12 10 10 9 10 11 12 12 12 12 12 10 9 11 11 11 11 12 13 13 13 13 14 14 15 14 14 14 13 13 12 12 12 12 12 11 11 10
15 15 14 13 12 10 11 11 10 10 11 11 12 12 11 11 9 8 8 9 10 10 11 12 11 12 13 14 14 14 14 14 14 14 13 13 12 12 12 12 11 11 10
14 15 14 13 12 11 11 11 11 11 12 12 12 12 11 11 10 8 5 6 8 10 11 11 10 11 12 13 14 14 14 14 14 13 13 12 12 12 12 12 11 11 9
13 15 14 13 13 13 12 12 11 11 11 10 11 11 10 10 10 9 5 4 5 7 9 8 9 8 9 11 12 13 14 14 14 13 12 12 12 12 12 11 11 10 9
12 13 13 12 13 13 13 13 13 12 12 11 10 10 11 10 10 10 8 5 5 5 6 5 7 8 8 8 9 10 11 12 13 12 11 11 11 12 12 11 11 10 9
13 12 12 12 13 13 12 12 12 12 12 11 12 11 11 11 10 10 9 7 6 6 6 6 6 6 5 5 7 9 10 11 12 12 11 11 11 12 12 11 10 10 8
14 14 12 13 14 14 14 12 13 13 12 12 12 12 12 12 11 9 9 9 8 8 7 6 5 5 5 4 4 5 6 9 10 11 11 11 11 10 9 9 9 8 9
14 14 14 13 13 13 13 13 12 13 14 13 13 13 13 12 12 9 9 9 8 8 8 7 6 5 5 5 4 4 4 6 8 9 9 9 9 8 7 8 8 8 9
13 14 14 13 13 12 9 9 10 10 12 13 12 12 12 13 12 10 9 9 9 9 8 8 7 6 5 5 3 2 3 3 3 3 3 1 -2 0 4 7 7 6 7
14 14 13 12 11 9 10 10 10 9 11 12 12 12 12 12 12 11 9 9 9 10 9 9 7 7 6 5 4 4 3 2 -0 -1 -1 -3 -4 -2 -2 -2 -4 -0 5
13 12 11 12 11 10 10 10 12 10 9 12 11 12 12 11 12 12 10 10 10 10 10 9 8 7 7 7 7 7 5 2 0 0 1 1 -0 0 -0 -3 -6 -6 -2
12 11 12 11 10 9 9 11 12 12 10 10 10 11 12 11 11 12 11 11 10 10 10 10 10 9 7 7 7 7 7 6 3 2 2 2 3 4 2 -2 -2 -2 -3
13 13 11 11 11 12 12 12 13 13 13 13 11 11 10 11 11 11 11 12 11 9 10 11 11 9 8 8 7 6 6 4 7 5 4 5 5 5 4 -1 -1 -2 -1
13 11 9 10 11 12 12 12 12 12 12 12 12 13 13 13 12 13 13 13 13 12 10 10 11 11 9 9 8 6 3 -0 -1 1 2 2 3 3 1 -1 -1 -1 -1
6 4 5 5 6 7 8 8 8 9 10 10 10 11 12 12 13 13 13 13 13 12 12 10 10 11 10 9 9 8 4 0 -0 1 1 1 2 1 -0 -1 -1 -1 -1
3 3 3 5 6 6 7 7 7 8 8 9 8 9 10 11 11 12 12 12 13 12 12 11 10 10 9 9 9 9 6 3 1 0 -0 -0 -0 -0 -1 -1 -1 -1 -1
8 8 8 7 8 8 7 8 9 8 8 8 8 8 9 9 9 11 12 12 12 12 12 11 11 11 10 9 9 9 8 3 0 -0 -1 -1 -1 -1 -1 -1 -1 -1 -1
10 10 10 10 10 9 9 7 6 8 8 8 8 8 10 9 9 9 11 12 12 12 12 11 10 10 10 9 9 9 9 6 2 -0 0 -0 -0 -1 -0 -0 -1 -1 -1
9 9 10 10 11 10 10 10 7 7 8 8 8 9 9 7 7 10 9 10 11 11 11 11 11 11 11 10 9 9 8 7 3 1 1 1 0 -0 -0 -0 -1 -1 -1
8 8 8 8 8 9 9 9 10 8 8 7 8 8 8 7 3 4 7 9 10 10 9 10 8 10 10 10 10 9 8 7 6 2 2 3 4 4 2 -0 -0 -0 -0
8 7 7 7 7 8 9 9 9 9 8 8 7 7 6 2 1 1 2 5 8 7 4 1 -0 3 6 8 9 9 9 9 6 4 3 4 4 3 3 1 0 -0 -0
4 7 8 8 7 7 8 8 9 9 9 9 8 7 6 4 2 2 3 4 6 6 4 0 1 1 2 5 6 7 7 8 8 7 4 4 4 2 2 2 1 1 1
3 3 4 6 6 7 7 7 8 8 8 9 8 6 6 5 4 4 3 3 4 6 6 2 2 3 3 4 6 6 7 7 7 7 7 6 5 3 3 2 2 3 2
6 5 5 5 4 5 7 8 8 8 8 8 7 6 5 5 5 4 4 4 4 6 7 6 4 4 4 3 3 4 5 4 4 5 6 6 5 4 4 3 4 4 3
7 8 8 8 8 9 9 9 8 8 7 7 7 7 7 7 6 6 6 6 6 5 5 5 5 5 4 4 4 4 4 4 4 4 5 5 7 5 4 4 5 4 5
Wind_Speed
10 9 9 10 9 7 4 3 3 2 3 2 2 5 5 5 5 6 5 6 6 6 6 4 5 7 9 13 13 13 19 15 10 18 14 12 7 6 7 6 7 8 8
9 8 8 9 9 7 5 4 3 3 3 4 3 3 4 4 4 4 5 5 3 3 5 4 3 5 7 9 12 16 19 14 11 14 18 16 11 10 8 7 8 10 9
9 9 9 9 7 6 5 4 4 3 3 3 5 5 4 4 2 2 3 3 2 1 2 3 3 4 5 7 9 13 15 13 12 13 19 18 15 13 11 11 10 10 8
7 9 9 9 5 5 5 4 5 4 4 5 7 7 6 5 3 2 1 2 2 2 2 2 2 2 4 5 8 11 14 14 13 13 17 18 16 14 11 9 10 9 9
5 9 9 8 7 7 6 4 6 6 4 6 8 9 7 5 4 3 2 2 3 3 3 3 3 4 4 5 6 8 11 13 13 14 16 19 18 16 14 12 10 11 9
3 7 9 8 8 7 9 10 10 9 7 9 8 9 8 6 6 5 3 2 3 4 3 3 4 4 4 4 4 6 6 5 11 15 14 17 17 14 14 12 12 13 11
4 7 9 9 9 6 10 14 13 14 15 16 12 11 10 8 8 7 6 5 4 3 3 3 4 4 4 3 4 5 6 7 7 8 12 13 13 12 12 13 12 11 9
8 5 9 11 10 9 11 10 13 18 22 23 20 15 15 10 8 9 8 7 7 5 5 5 4 4 5 5 5 5 5 7 8 9 10 10 10 10 10 9 10 12 10
11 7 7 10 8 7 7 8 10 12 19 25 22 19 19 14 10 11 10 9 8 8 8 6 5 5 5 5 5 5 6 8 9 10 10 11 10 10 10 11 13 13 12
10 8 8 8 8 5 4 3 3 6 9 14 12 21 19 18 15 13 13 11 10 10 9 9 8 7 7 6 5 5 6 6 7 9 10 10 10 10 10 11 11 11 13
11 8 8 9 10 9 5 3 4 7 5 11 11 11 10 15 16 16 16 15 12 10 9 9 10 9 8 8 7 7 6 6 8 8 8 9 9 9 7 7 10 13 14
10 9 10 11 10 8 8 8 7 6 4 6 12 5 6 15 13 19 18 17 15 14 12 9 10 12 12 11 11 11 9 8 11 12 12 11 10 8 5 3 5 9 12
9 10 11 9 9 9 10 11 11 10 9 5 5 8 7 7 4 17 20 18 18 19 15 13 11 13 15 15 15 16 15 14 15 18 16 13 11 10 9 7 7 7 6
9 8 5 7 10 12 15 16 16 15 15 18 17 14 12 11 14 13 16 19 21 23 21 19 19 17 17 17 19 20 20 19 20 19 19 16 16 16 16 13 11 12 13
7 3 1 3 6 9 10 8 7 8 10 14 20 20 22 24 24 21 20 24 23 25 25 25 27 25 24 24 22 22 22 21 21 19 19 21 22 20 20 17 15 13 15
9 9 7 4 2 4 6 5 6 8 10 11 11 17 22 22 21 22 23 23 24 23 29 30 30 30 29 27 26 25 24 22 21 20 18 17 18 19 19 21 20 17 16
13 11 9 7 5 5 7 7 4 6 9 11 14 13 15 18 19 22 21 24 21 29 32 32 32 32 31 29 28 27 27 24 22 22 21 21 21 22 22 24 23 21 19
10 8 5 3 5 8 9 10 11 11 12 11 10 14 15 15 18 19 19 21 24 28 35 33 33 33 32 32 30 28 28 26 27 24 22 22 22 22 23 25 25 24 22
1 2 5 6 8 9 12 11 11 12 14 15 16 15 14 14 13 14 17 19 22 24 32 33 32 34 34 30 31 29 29 29 29 29 28 24 24 23 23 23 25 23 23
6 8 11 14 13 13 14 14 13 13 16 17 17 15 14 17 16 14 14 15 17 19 21 28 32 34 37 28 28 29 30 30 32 34 32 29 29 27 26 25 26 26 25
10 12 13 14 15 17 17 17 14 16 16 18 18 14 15 19 20 18 17 17 17 17 17 18 22 24 25 27 30 30 30 30 33 37 36 35 34 34 33 30 29 29 26
12 13 12 13 14 17 19 19 20 20 20 18 18 13 12 15 18 19 18 17 19 17 16 18 20 23 27 28 27 29 29 31 32 39 41 38 36 33 32 34 32 32 30
17 18 16 13 14 15 15 17 19 20 20 19 16 15 14 15 15 15 14 14 15 16 16 16 15 16 19 23 25 27 28 31 34 36 41 39 33 27 28 33 33 31 31
17 15 15 16 17 17 16 15 14 13 14 13 13 14 16 15 15 18 18 17 19 18 17 19 18 18 18 19 20 21 24 27 29 27 30 32 32 33 33 36 34 34 37
11 8 8 9 11 10 12 11 10 11 10 9 10 12 13 14 15 15 15 16 17 17 19 19 20 20 20 20 23 22 22 21 23 25 26 29 32 34 38 38 39 38 37
12 9 7 7 7 6 5 4 4 5 5 6 7 9 11 13 14 16 16 15 14 13 12 15 20 22 13 11 13 18 24 27 28 25 24 27 34 35 35 36 37 38 40
Wind_Direction
259 234 225 225 228 222 213 213 250 245 226 221 244 237 251 258 275 276 247 238 241 245 241 229 230 232 217 213 213 210 210 207 220 184 187 178 176 183 155 145 137 128 119
255 228 218 212 218 221 215 221 215 207 242 272 269 236 244 265 287 249 243 246 249 245 232 231 234 223 213 205 205 209 213 219 221 198 185 183 186 179 172 164 155 139 128
242 220 213 209 215 203 217 247 237 231 237 253 270 280 258 269 303 303 277 259 226 214 213 205 221 217 211 203 199 202 211 216 218 218 194 193 192 192 178 175 169 160 146
230 216 216 207 211 219 222 238 240 241 260 271 280 280 275 273 277 298 257 222 191 166 169 148 142 165 182 190 195 201 215 218 220 211 200 197 200 192 190 194 178 166 157
231 215 207 208 216 218 232 237 249 244 263 285 274 273 265 269 278 274 252 193 155 148 174 150 122 116 153 176 185 213 218 217 209 198 197 198 202 202 198 197 185 176 177
242 198 193 204 228 237 238 234 234 238 247 268 268 259 259 266 260 263 248 215 173 152 176 165 155 133 121 141 154 155 154 183 197 188 201 202 209 208 200 195 194 197 187
195 196 204 216 222 251 277 268 268 244 240 249 242 248 246 255 261 247 251 235 213 193 186 171 156 153 141 131 152 167 165 165 169 198 204 204 209 210 208 211 204 200 200
205 214 220 228 233 274 294 285 282 260 255 266 240 234 232 235 257 242 244 237 230 219 202 189 178 176 174 166 173 173 172 177 175 177 183 200 202 204 202 209 207 199 199
200 212 230 233 248 271 284 284 289 284 278 273 244 233 234 224 240 241 242 242 235 233 223 219 211 193 200 188 187 191 187 182 184 186 190 192 198 197 196 196 204 212 218
201 205 217 223 239 213 174 118 24 338 309 260 262 259 258 223 223 231 241 240 241 242 237 235 224 212 206 209 202 213 215 204 205 204 200 199 200 202 205 209 212 221 219
201 208 222 226 206 193 214 303 326 349 297 266 279 264 239 238 237 229 231 241 244 245 244 241 234 232 223 220 214 211 221 232 215 201 197 182 171 165 173 203 224 225 226
203 209 207 192 197 219 247 275 282 290 321 230 253 248 209 255 252 238 233 233 243 245 246 244 237 236 232 225 220 220 227 223 214 204 200 196 192 192 205 219 213 220 226
195 189 189 205 227 243 246 255 263 264 263 238 248 216 195 185 249 253 238 233 235 240 243 243 243 240 233 230 228 226 229 232 225 219 220 223 224 223 233 226 219 214 224
190 186 199 244 264 269 265 264 269 270 265 260 250 249 239 245 251 243 246 245 233 237 233 233 240 239 237 238 235 232 235 237 236 237 236 233 234 233 234 227 222 216 216
218 180 224 284 268 273 267 274 275 274 280 274 269 270 263 261 266 269 256 250 248 245 238 235 235 235 236 239 239 236 235 236 235 237 241 235 237 234 222 224 223 225 220
100 87 84 67 350 288 290 305 304 289 284 289 285 270 270 273 268 270 262 255 253 253 236 232 235 240 243 245 241 239 235 233 232 233 234 230 224 221 227 224 222 223 226
78 76 73 65 31 347 336 326 349 347 344 340 324 314 295 289 288 276 273 267 262 246 235 234 236 241 247 249 245 243 239 236 232 231 233 226 226 231 232 229 228 227 225
75 72 61 24 3 360 341 323 324 335 332 333 326 316 311 305 288 289 276 271 260 249 236 238 239 241 243 246 244 241 239 234 233 232 228 226 229 234 234 230 227 231 226
33 312 296 301 309 319 327 323 327 319 325 309 298 301 309 302 297 297 292 282 274 261 245 241 246 246 244 243 250 247 242 235 233 230 234 232 233 234 237 238 234 232 226
286 288 283 281 284 287 295 313 320 320 312 317 307 309 313 313 306 298 291 286 282 277 268 255 257 260 258 245 243 246 247 240 231 231 234 237 238 238 242 242 236 234 235
294 290 287 290 292 282 279 283 298 300 307 310 315 311 306 301 303 297 291 289 288 278 271 271 269 273 277 262 263 251 245 239 236 234 236 241 245 246 243 243 242 239 241
295 294 298 299 292 285 282 280 281 284 289 296 306 311 303 306 314 304 297 282 289 279 277 281 282 278 275 273 269 272 264 248 242 237 238 240 249 250 244 240 242 239 238
284 281 281 283 289 290 293 287 282 281 284 286 290 298 302 303 307 311 308 294 287 269 281 288 289 295 289 277 273 271 260 254 255 249 246 248 259 233 247 241 241 241 243
286 283 288 289 284 279 285 287 287 288 290 286 283 292 305 310 311 308 306 306 284 268 264 268 274 290 287 283 280 278 274 267 266 264 252 252 249 232 243 241 241 243 245
354 333 299 298 308 297 271 281 285 290 287 288 290 299 308 319 323 317 315 320 317 298 271 271 276 287 297 298 287 281 274 275 268 261 262 256 240 247 240 239 239 245 256
20 14 352 347 346 328 311 311 309 307 314 320 328 329 330 330 329 329 329 331 321 312 302 304 311 304 294 299 299 284 270 264 270 271 266 258 249 238 238 244 244 248 252
Height
1520 1519 1520 1522 1523 1523 1522 1523 1524 1525 1525 1526 1526 1526 1527 1527 1527 1526 1526 1526 1526 1526 1527 1527 1527 1528 1528 1529 1530 1532 1535 1537 1539 1541 1544 1546 1548 1550 1551 1552 1552 1554 1554
1519 1518 1519 1520 1523 1524 1524 1524 1524 1524 1525 1527 1527 1527 1527 1526 1526 1525 1526 1526 1526 1526 1527 1527 1527 1527 1528 1528 1529 1531 1534 1536 1538 1539 1542 1545 1547 1549 1551 1551 1552 1553 1554
1517 1516 1518 1520 1521 1522 1524 1525 1525 1526 1526 1527 1528 1529 1527 1527 1525 1525 1526 1525 1525 1525 1526 1526 1526 1527 1528 1528 1529 1531 1533 1535 1536 1537 1539 1543 1545 1548 1549 1551 1551 1552 1554
1514 1515 1516 1518 1520 1522 1522 1523 1525 1526 1527 1527 1528 1529 1527 1527 1525 1525 1525 1525 1524 1525 1526 1526 1526 1526 1527 1528 1529 1530 1532 1533 1534 1536 1538 1541 1545 1547 1548 1550 1551 1552 1553
1512 1513 1514 1517 1519 1520 1522 1522 1523 1524 1524 1524 1526 1527 1527 1526 1525 1526 1525 1525 1524 1523 1526 1526 1525 1526 1527 1528 1529 1530 1531 1531 1532 1534 1537 1539 1542 1545 1546 1549 1550 1552 1554
1510 1510 1511 1514 1518 1519 1520 1520 1519 1521 1522 1523 1523 1524 1525 1525 1526 1526 1526 1526 1525 1524 1525 1525 1525 1525 1527 1528 1529 1530 1530 1531 1531 1533 1536 1538 1540 1543 1544 1546 1548 1551 1552
1506 1507 1508 1510 1513 1515 1517 1517 1518 1518 1517 1516 1520 1520 1522 1524 1524 1525 1526 1526 1525 1525 1526 1526 1525 1526 1526 1528 1529 1529 1530 1531 1532 1533 1535 1537 1539 1541 1543 1545 1546 1548 1551
1502 1504 1505 1508 1510 1511 1512 1512 1514 1513 1513 1513 1514 1516 1519 1521 1522 1523 1524 1525 1525 1525 1526 1526 1526 1527 1527 1527 1529 1529 1530 1530 1531 1532 1534 1536 1538 1540 1541 1544 1547 1548 1549
1497 1500 1503 1506 1507 1506 1507 1507 1508 1508 1509 1507 1508 1511 1513 1518 1519 1521 1522 1524 1524 1525 1525 1526 1527 1527 1528 1528 1529 1529 1530 1530 1531 1532 1533 1535 1536 1538 1539 1541 1543 1545 1547
1497 1498 1501 1503 1504 1504 1503 1503 1504 1503 1504 1506 1506 1508 1510 1512 1515 1518 1520 1521 1522 1524 1524 1524 1526 1527 1527 1527 1528 1529 1530 1530 1531 1533 1533 1533 1535 1536 1537 1539 1541 1542 1543
1494 1496 1498 1501 1503 1502 1504 1502 1502 1501 1500 1504 1504 1502 1505 1508 1511 1513 1516 1518 1520 1522 1522 1523 1524 1525 1525 1526 1526 1527 1529 1530 1530 1532 1534 1535 1535 1536 1536 1537 1538 1539 1540
1491 1491 1494 1497 1499 1500 1503 1504 1504 1504 1499 1500 1502 1502 1502 1504 1507 1510 1512 1515 1517 1519 1520 1521 1522 1522 1523 1524 1525 1526 1527 1528 1529 1530 1532 1534 1534 1534 1535 1535 1536 1537 1538
1489 1490 1492 1495 1496 1497 1500 1504 1506 1504 1503 1500 1500 1500 1501 1502 1504 1504 1508 1510 1512 1515 1517 1518 1519 1520 1521 1521 1522 1523 1524 1525 1526 1527 1529 1531 1533 1533 1533 1533 1535 1535 1537
1489 1488 1487 1491 1495 1498 1499 1501 1502 1503 1501 1501 1500 1500 1500 1500 1501 1501 1503 1505 1506 1509 1511 1512 1514 1515 1516 1517 1518 1518 1519 1520 1522 1523 1525 1527 1528 1529 1530 1531 1533 1533 1535
1487 1482 1482 1487 1492 1496 1498 1497 1496 1496 1498 1498 1498 1497 1496 1495 1496 1497 1499 1498 1500 1501 1505 1505 1506 1507 1509 1510 1512 1513 1514 1515 1516 1519 1520 1521 1523 1524 1526 1527 1529 1531 1531
1485 1482 1484 1488 1492 1495 1496 1494 1495 1494 1493 1493 1492 1491 1493 1492 1492 1492 1491 1492 1493 1496 1495 1496 1498 1501 1502 1504 1505 1507 1507 1509 1511 1513 1515 1516 1517 1519 1522 1523 1524 1526 1528
1483 1484 1486 1490 1493 1495 1495 1495 1490 1491 1491 1490 1491 1489 1486 1487 1487 1487 1486 1486 1486 1486 1486 1489 1491 1493 1495 1497 1499 1500 1501 1503 1505 1507 1509 1511 1513 1515 1516 1518 1520 1521 1523
1483 1485 1488 1491 1492 1493 1493 1495 1492 1487 1486 1487 1485 1487 1485 1482 1481 1482 1481 1481 1480 1477 1479 1482 1483 1485 1487 1490 1491 1492 1494 1497 1499 1501 1502 1504 1507 1509 1511 1512 1513 1515 1517
1483 1485 1488 1489 1490 1490 1493 1491 1488 1488 1485 1485 1486 1483 1482 1479 1476 1476 1477 1477 1475 1473 1474 1475 1477 1479 1479 1481 1484 1487 1488 1488 1491 1495 1498 1498 1500 1502 1504 1506 1507 1509 1511
1483 1483 1485 1486 1486 1487 1490 1489 1486 1486 1486 1485 1483 1482 1480 1479 1475 1472 1470 1470 1470 1470 1470 1469 1471 1472 1468 1471 1476 1479 1481 1483 1483 1486 1488 1491 1493 1495 1498 1500 1501 1503 1505
1481 1481 1481 1480 1481 1483 1484 1485 1483 1482 1480 1482 1480 1477 1476 1475 1474 1470 1467 1467 1466 1464 1465 1466 1468 1467 1468 1467 1470 1468 1470 1472 1474 1477 1480 1482 1484 1487 1490 1492 1494 1496 1498
1477 1476 1474 1474 1475 1478 1479 1479 1480 1478 1479 1475 1476 1472 1469 1467 1469 1468 1464 1461 1463 1464 1461 1460 1459 1461 1462 1463 1464 1464 1463 1463 1465 1467 1470 1471 1473 1476 1479 1483 1485 1487 1490
1468 1469 1469 1468 1469 1473 1474 1474 1473 1473 1474 1473 1472 1469 1467 1464 1463 1463 1461 1459 1457 1457 1458 1456 1455 1455 1455 1456 1456 1456 1456 1455 1457 1459 1460 1461 1463 1465 1469 1473 1476 1478 1481
1462 1459 1459 1461 1464 1467 1469 1469 1470 1469 1468 1468 1468 1466 1464 1463 1459 1461 1459 1455 1454 1451 1451 1452 1452 1451 1449 1450 1450 1449 1449 1448 1449 1448 1450 1453 1453 1455 1459 1462 1466 1468 1469
1456 1455 1458 1459 1460 1461 1462 1462 1464 1464 1462 1464 1462 1461 1460 1460 1457 1457 1455 1452 1450 1449 1447 1447 1447 1446 1445 1445 1445 1444 1443 1443 1442 1442 1442 1443 1444 1444 1448 1452 1453 1455 1456
1458 1459 1463 1462 1460 1459 1459 1459 1462 1462 1461 1459 1460 1458 1456 1456 1455 1455 1453 1449 1448 1445 1445 1444 1441 1440 1440 1439 1439 1439 1437 1437 1436 1436 1435 1433 1435 1436 1437 1439 1442 1443 1444